{"data":{"norad_id":49181,"intl_designator":"2021-082BD","name":"STARLINK-3059","alt_names":[],"object_type":"PAYLOAD","status":"ACTIVE","operator":null,"country":"US","launch_date":"2021-09-14","launch_site_code":"AFWTR","launch_vehicle":null,"mission":null,"orbit_class":"UNKNOWN","rcs_meters":null,"size_class":null,"mass_kg":null,"dimensions":null,"purposes":["comms"],"wikipedia_slug":null,"has_3d_model":false,"image_url":null,"decayed_at":null,"tle_current":{"epoch":"2026-09-20T03:21:23.719104Z","epoch_age_seconds":72419,"freshness":"FRESH","line1":"1 49181U 21082BD  26263.13985786  .00000346  00000+0  36824-4 0  9991","line2":"2 49181  69.9998 164.1800 0002878 268.3150  91.7679 14.98328392276299","mean_motion":14.98328392,"eccentricity":0.0002878,"inclination_deg":69.9998,"raan_deg":164.18,"arg_perigee_deg":268.315,"mean_anomaly_deg":91.7679,"bstar":3.6824e-5,"rev_number":27629,"period_min":96.107102267338,"perigee_km":570.06059661109,"apogee_km":574.06113050135,"semimajor_km":6950.1978635562,"source":"CELESTRAK","updated_at":"2026-09-20T09:00:39.255050Z"}}}